Content
SEND FEEDBACK

Daily
Averages
Monthly
Summary
United States of America

GLENVIEW, ILLINOIS


Home > North America > United States > Illinois
Elevation: 653 feet     Latitude: 42 05N     Longitude: 087 50W

WEATHER
 
SELECT A DAY
Number of Records: 197,222;   Date Range: 7/8/95 - 9/29/14
 
SHARE

PRINT THIS DATA

[ ← Previous Day ]
WEATHER ALMANAC - MARCH 14, 2013
[ Next Day → ]
[ °C ]   °F
Weather ElementAverageHighLow
Temperature30 °F36 °F (4:52 pm)21.9 °F (4:52 am)
Dewpoint20.8 °F28.9 °F (9:52 pm)14 °F (11:52 am)
Humidity69.7 %88 % (9:52 pm)46 % (11:52 am)
Barometer30.26 in30.35 in (1:52 am)30.12 in (10:52 pm)
Wind Speed4.9 mph10.4 mph (4:52 pm)
Weather ElementAverage
Visibility9.2 mi
Wind DirectionSSE (152.1 °)

Weather ElementTotal
Precipitation---
Heating Degree Days36.1 (Base 65)
Averaged from 24 records on March 14, 2013
WEATHER CONDITIONS BREAKOUT
WIND DIRECTION BREAKOUT
WEATHER BY HOUR - MARCH 14, 2013
[ °C ]   °F
Local TimeTemperatureDewpointHumidityBarometerVisibilityWind DirectionWind SpeedGust SpeedPrecipitationEventsConditions
1:52 AM24.1 °F15.1 °F69 %30.35 in10.0 miWest (280°)3.5 mphClear
2:52 AM24.1 °F15.1 °F69 %30.35 in10.0 miWSW (250°)3.5 mphClear
3:52 AM23.0 °F15.1 °F72 %30.34 in10.0 miCalmClear
4:52 AM21.9 °F15.1 °F75 %30.32 in10.0 miCalmClear
5:52 AM21.9 °F15.1 °F75 %30.32 in10.0 miCalmClear
6:52 AM21.9 °F15.1 °F75 %30.34 in10.0 miWest (260°)4.6 mphClear
7:52 AM23.0 °F16.0 °F74 %30.34 in10.0 miCalmClear
8:52 AM26.1 °F17.1 °F69 %30.34 in10.0 miCalmScattered Clouds
9:52 AM28.9 °F16.0 °F58 %30.32 in10.0 miCalmScattered Clouds
10:52 AM32.0 °F16.0 °F52 %30.31 in10.0 miVariable5.8 mphMostly Cloudy
11:52 AM33.1 °F14.0 °F46 %30.30 in10.0 miVariable4.6 mphOvercast
12:52 PM35.1 °F17.1 °F48 %30.29 in10.0 miWNW (290°)8.1 mphOvercast
1:52 PM35.1 °F16.0 °F46 %30.27 in10.0 miWSW (240°)8.1 mphOvercast
2:52 PM33.1 °F21.9 °F64 %30.24 in10.0 miWSW (250°)4.6 mphOvercast
3:52 PM35.1 °F24.1 °F64 %30.21 in10.0 miSW (220°)8.1 mphMostly Cloudy
4:52 PM36.0 °F27.0 °F70 %30.19 in10.0 miSouth (190°)10.4 mphClear
5:52 PM36.0 °F27.0 °F70 %30.23 in10.0 miSSW (200°)5.8 mphOvercast
6:52 PM35.1 °F27.0 °F72 %30.20 in9.0 miSSW (210°)6.9 mphOvercast
7:52 PM33.1 °F27.0 °F78 %30.20 in8.0 miWSW (250°)5.8 mphMostly Cloudy
8:52 PM33.1 °F28.0 °F82 %30.18 in7.0 miSSW (210°)9.2 mphMostly Cloudy
9:35 PM32.0 °F28.4 °F87 %30.13 in6.0 miSSW (200°)5.8 mphScattered Clouds
9:52 PM32.0 °F28.9 °F88 %30.15 in6.0 miSSW (200°)6.9 mphClear
10:52 PM32.0 °F28.0 °F85 %30.12 in7.0 miSouth (190°)10.4 mphClear
11:52 PM32.0 °F28.0 °F85 %30.12 in8.0 miSSW (210°)4.6 mphClear
Hourly data recorded from KPWK, located miles away from Glenview, Illinois







STORIES FROM OUR PARTNERS